This is the latest recevied weather packets stored in our database for station/object EA2KR-10. If no packets are shown the sender has not sent any weather packets the latest 10 day(s).
| Time | Temp. | Humidity | Pressure | Rain* | Wind** | Luminosity | Snow |
|---|---|---|---|---|---|---|---|
| 1777860938 | 15° C | 69% | 1022.9 hPa | - | - | - | - |
| 1777859138 | 15° C | 69% | 1022.9 hPa | - | - | - | - |
| 1777857338 | 15° C | 69% | 1023 hPa | - | - | - | - |
| 1777855538 | 15° C | 69% | 1022.9 hPa | - | - | - | - |
| 1777853738 | 15° C | 69% | 1023.2 hPa | - | - | - | - |
| 1777851937 | 15° C | 69% | 1023.2 hPa | - | - | - | - |
| 1777850141 | 15° C | 69% | 1023.2 hPa | - | - | - | - |
| 1777848341 | 15° C | 69% | 1023.2 hPa | - | - | - | - |
| 1777846541 | 15° C | 70% | 1023.4 hPa | - | - | - | - |
| 1777844740 | 15.56° C | 69% | 1023.4 hPa | - | - | - | - |
| 1777842940 | 15.56° C | 69% | 1023.3 hPa | - | - | - | - |
| 1777841140 | 16.11° C | 69% | 1023.7 hPa | - | - | - | - |
| 1777839340 | 16.11° C | 69% | 1023.4 hPa | - | - | - | - |
| 1777837540 | 16.11° C | 68% | 1023.1 hPa | - | - | - | - |
| 1777835740 | 16.11° C | 68% | 1022.8 hPa | - | - | - | - |
| 1777833940 | 16.11° C | 68% | 1022.6 hPa | - | - | - | - |
| 1777832140 | 16.11° C | 68% | 1022.7 hPa | - | - | - | - |
| 1777830340 | 16.11° C | 68% | 1022.6 hPa | - | - | - | - |
| 1777828540 | 17.22° C | 67% | 1022.5 hPa | - | - | - | - |
| 1777826740 | 17.22° C | 65% | 1022.5 hPa | - | - | - | - |
| 1777824939 | 18.33° C | 65% | 1022.5 hPa | - | - | - | - |
| 1777823139 | 18.33° C | 64% | 1022.5 hPa | - | - | - | - |
| 1777821339 | 23.89° C | 58% | 1022.5 hPa | - | - | - | - |
| 1777819539 | 23.33° C | 59% | 1022.8 hPa | - | - | - | - |
| 1777817739 | 22.22° C | 60% | 1023.2 hPa | - | - | - | - |
* Rain since midnight (hover to see other rain measurements)
** Current wind speed in m/s (hover to see current wind gust speed)